This demonstration page uses our WeatherBlox Daily Observations layout. Learn more.

Left ArrowRight Arrow

Hourly Observations for August 31, 2021

Temp ( °F °C ) Dew Point ( °F °C ) Humidity (%) Winds ( mph kmh ) Pressure ( in mb ) Visibility ( mi km ) Precip ( " mm )
12:15 am 00:15 Partly Cloudy with Light Rain 75 23.9 70 21.1 84 84 SSW 5 7 29.88 1012 6 10 0.01 0.25
12:59 am 00:59 Mostly Cloudy 74 23.3 71 21.7 91 91 S 7 11 29.85 1011 10 16 0.01 0.25
1:59 am 01:59 Mostly Cloudy 76 24.4 71 21.7 85 85 Calm 29.85 1011 10 16 0.00 0.00
2:59 am 02:59 Mostly Cloudy 75 23.9 71 21.7 88 88 SW 5 7 29.84 1011 9 14 0.00 0.00
3:59 am 03:59 Mostly Cloudy 75 23.9 71 21.7 88 88 SW 6 9 29.84 1011 10 16 0.00 0.00
4:59 am 04:59 Partly Cloudy 74 23.3 69 20.6 85 85 S 3 6 29.84 1011 10 16 0.00 0.00
5:59 am 05:59 Partly Cloudy 73 22.8 69 20.6 87 87 Calm 29.85 1011 10 16 0.00 0.00
6:59 am 06:59 Mostly Cloudy 73 22.8 70 21.1 90 90 Calm 29.86 1011 9 14 0.00 0.00
7:59 am 07:59 Mostly Cloudy 77 25 70 21.1 79 79 W 5 7 29.87 1011 10 16 0.00 0.00
8:59 am 08:59 Mostly Sunny 80 26.7 69 20.6 69 69 VRB 5 7 29.86 1011 10 16 0.00 0.00
9:59 am 09:59 Sunny 82 27.8 70 21.1 67 67 W 5 7 29.86 1011 10 16 0.00 0.00
10:59 am 10:59 Partly Cloudy 84 28.9 70 21.1 63 63 W 5 7 29.86 1011 10 16 0.00 0.00
11:59 am 11:59 Sunny 86 30 69 20.6 57 57 WNW 7 11 29.85 1011 10 16 0.00 0.00
12:59 pm 12:59 Sunny 87 30.6 72 22.2 61 61 W 6 9 29.84 1011 10 16 0.00 0.00
1:59 pm 13:59 Sunny 87 30.6 72 22.2 61 61 W 6 9 29.83 1010 10 16 0.00 0.00
2:59 pm 14:59 Mostly Cloudy 89 31.7 73 22.8 59 59 SSW 6 9 29.80 1009 9 14 0.00 0.00
3:59 pm 15:59 Mostly Cloudy 90 32.2 72 22.2 56 56 SW 9 15 29.79 1009 9 14 0.00 0.00
4:59 pm 16:59 Mostly Cloudy 90 32.2 72 22.2 56 56 W 6 9 29.79 1009 9 14 0.00 0.00
5:59 pm 17:59 Cloudy 89 31.7 72 22.2 57 57 W 6 9 29.79 1009 9 14 0.00 0.00
6:59 pm 18:59 Cloudy 86 30 74 23.3 67 67 E 5 7 29.79 1009 8 13 0.00 0.00
7:59 pm 19:59 Cloudy 84 28.9 75 23.9 74 74 ESE 5 7 29.80 1009 10 16 0.00 0.00
8:59 pm 20:59 Cloudy 83 28.3 75 23.9 77 77 SE 6 9 29.81 1010 9 14 0.00 0.00
9:59 pm 21:59 Mostly Cloudy 83 28.3 76 24.4 79 79 SE 5 7 29.81 1010 9 14 0.00 0.00
10:59 pm 22:59 Mostly Cloudy 82 27.8 76 24.4 82 82 SSE 3 6 29.81 1009 8 13 0.00 0.00
11:59 pm 23:59 Mostly Cloudy 82 27.8 73 22.8 74 74 VRB 5 7 29.80 1009 8 13 0.00 0.00

Powered by AerisWeather